TimeHST,TemperatureF,Dew PointF,Humidity,Sea Level PressureIn,VisibilityMPH,Wind Direction,Wind SpeedMPH,Gust SpeedMPH,PrecipitationIn,Events,Conditions,WindDirDegrees,DateUTC
12:53 AM,75.9,71.1,85,30.07,10.0,ENE,9.2,-,0.00,,Mostly Cloudy,70,2013-05-24 10:53:00
1:53 AM,75.9,70.0,82,30.06,10.0,East,9.2,-,N/A,,Overcast,80,2013-05-24 11:53:00
2:53 AM,75.0,70.0,84,30.06,10.0,Calm,Calm,-,N/A,,Mostly Cloudy,0,2013-05-24 12:53:00
3:53 AM,73.0,68.0,84,30.06,10.0,West,6.9,-,N/A,,Overcast,280,2013-05-24 13:53:00
4:53 AM,72.0,68.0,87,30.06,10.0,WNW,9.2,-,N/A,,Overcast,290,2013-05-24 14:53:00
5:33 AM,71.6,66.2,83,30.07,10.0,West,8.1,-,N/A,,Mostly Cloudy,270,2013-05-24 15:33:00
5:53 AM,71.1,66.9,87,30.06,10.0,West,9.2,-,N/A,,Mostly Cloudy,260,2013-05-24 15:53:00
6:00 AM,71.6,66.2,83,30.07,10.0,West,8.1,-,N/A,,Overcast,260,2013-05-24 16:00:00
6:32 AM,71.6,68.0,88,30.08,10.0,West,8.1,-,0.00,Rain,Light Rain,280,2013-05-24 16:32:00
6:53 AM,73.0,69.1,87,30.08,10.0,ENE,16.1,21.9,0.00,,Overcast,60,2013-05-24 16:53:00
6:59 AM,73.4,69.8,88,30.09,9.0,ENE,10.4,-,N/A,,Overcast,60,2013-05-24 16:59:00
7:06 AM,73.4,69.8,88,30.09,10.0,ENE,12.7,-,N/A,,Overcast,60,2013-05-24 17:06:00
7:53 AM,75.9,66.0,71,30.09,10.0,East,10.4,-,N/A,,Overcast,80,2013-05-24 17:53:00
8:53 AM,80.1,66.9,64,30.09,10.0,NNW,6.9,-,N/A,,Scattered Clouds,330,2013-05-24 18:53:00
9:53 AM,81.0,66.9,62,30.11,10.0,NE,9.2,-,N/A,,Overcast,50,2013-05-24 19:53:00
10:53 AM,81.0,71.1,72,30.10,10.0,NE,12.7,-,N/A,,Clear,40,2013-05-24 20:53:00
11:53 AM,81.0,71.1,72,30.11,10.0,NE,11.5,-,N/A,,Partly Cloudy,40,2013-05-24 21:53:00
12:39 PM,80.6,71.6,74,30.11,10.0,ENE,10.4,-,N/A,,Mostly Cloudy,60,2013-05-24 22:39:00
12:53 PM,82.0,71.1,69,30.09,10.0,ENE,12.7,-,N/A,,Mostly Cloudy,60,2013-05-24 22:53:00
1:05 PM,82.4,71.6,70,30.10,10.0,ENE,12.7,-,N/A,,Partly Cloudy,60,2013-05-24 23:05:00
1:53 PM,82.9,70.0,65,30.08,10.0,NE,12.7,-,N/A,,Clear,40,2013-05-24 23:53:00
2:53 PM,82.0,70.0,67,30.06,10.0,NE,11.5,-,N/A,,Scattered Clouds,50,2013-05-25 00:53:00
3:53 PM,81.0,69.1,67,30.06,10.0,NE,12.7,-,N/A,,Clear,40,2013-05-25 01:53:00
4:53 PM,80.1,69.1,69,30.06,10.0,NE,10.4,-,N/A,,Mostly Cloudy,40,2013-05-25 02:53:00
5:53 PM,78.1,69.1,74,30.06,10.0,NE,11.5,-,N/A,,Partly Cloudy,50,2013-05-25 03:53:00
6:53 PM,77.0,68.0,74,30.07,10.0,NE,12.7,-,N/A,,Partly Cloudy,40,2013-05-25 04:53:00
7:53 PM,75.9,69.1,79,30.08,10.0,NE,13.8,-,N/A,,Clear,40,2013-05-25 05:53:00
8:24 PM,75.2,69.8,83,30.09,10.0,ENE,16.1,-,0.01,Rain,Light Rain,60,2013-05-25 06:24:00
8:33 PM,75.2,69.8,83,30.09,10.0,ENE,16.1,-,0.01,,Mostly Cloudy,60,2013-05-25 06:33:00
8:53 PM,75.0,69.1,82,30.09,10.0,NE,17.3,-,0.01,,Partly Cloudy,50,2013-05-25 06:53:00
9:53 PM,75.0,69.1,82,30.10,10.0,ENE,13.8,-,N/A,,Scattered Clouds,70,2013-05-25 07:53:00
10:53 PM,75.0,68.0,79,30.10,10.0,ENE,16.1,-,N/A,,Partly Cloudy,60,2013-05-25 08:53:00
11:29 PM,75.2,69.8,83,30.10,10.0,ENE,13.8,-,N/A,,Mostly Cloudy,60,2013-05-25 09:29:00
11:43 PM,75.2,69.8,83,30.10,10.0,ENE,13.8,-,N/A,,Mostly Cloudy,60,2013-05-25 09:43:00
11:53 PM,75.0,68.0,79,30.09,10.0,NE,13.8,-,N/A,,Mostly Cloudy,50,2013-05-25 09:53:00